TimeEDT,TemperatureF,Dew PointF,Humidity,Sea Level PressureIn,VisibilityMPH,Wind Direction,Wind SpeedMPH,Gust SpeedMPH,PrecipitationIn,Events,Conditions,WindDirDegrees,DateUTC
12:58 AM,66.4,58.3,75,30.03,10.0,East,6.9,-,N/A,,Clear,90,2013-06-19 04:58:00
1:58 AM,64.8,58.5,80,30.03,10.0,East,5.8,-,N/A,,Clear,100,2013-06-19 05:58:00
2:58 AM,63.0,58.3,85,30.04,10.0,ENE,6.9,-,N/A,,Clear,60,2013-06-19 06:58:00
3:58 AM,61.5,57.9,88,30.05,10.0,ENE,5.8,-,N/A,,Clear,70,2013-06-19 07:58:00
4:58 AM,60.4,58.1,92,30.05,10.0,ENE,8.1,-,N/A,,Clear,70,2013-06-19 08:58:00
5:58 AM,59.2,55.4,87,30.08,10.0,ENE,6.9,-,N/A,,Scattered Clouds,70,2013-06-19 09:58:00
6:58 AM,58.6,52.9,81,30.11,10.0,East,8.1,-,N/A,,Partly Cloudy,80,2013-06-19 10:58:00
7:58 AM,60.4,50.7,70,30.11,10.0,East,9.2,-,N/A,,Clear,90,2013-06-19 11:58:00
8:58 AM,65.1,46.0,50,30.13,10.0,East,8.1,-,N/A,,Partly Cloudy,90,2013-06-19 12:58:00
9:55 AM,65.8,53.1,63,30.13,10.0,East,6.9,-,N/A,,Clear,90,2013-06-19 13:55:00
10:41 AM,68.0,55.4,64,30.13,10.0,ENE,8.1,-,N/A,,Clear,60,2013-06-19 14:41:00
10:55 AM,68.9,55.9,63,30.13,10.0,ESE,8.1,-,N/A,,Clear,110,2013-06-19 14:55:00
11:58 AM,70.9,55.6,58,30.14,10.0,ENE,6.9,-,N/A,,Clear,70,2013-06-19 15:58:00
12:58 PM,72.7,56.5,57,30.13,10.0,Variable,3.5,-,N/A,,Clear,0,2013-06-19 16:58:00
1:58 PM,73.9,55.9,53,30.12,10.0,Variable,4.6,-,N/A,,Clear,0,2013-06-19 17:58:00
2:58 PM,75.4,56.5,52,30.10,10.0,NE,5.8,-,N/A,,Partly Cloudy,50,2013-06-19 18:58:00
3:58 PM,76.3,56.7,51,30.10,10.0,Variable,5.8,-,N/A,,Clear,0,2013-06-19 19:58:00
4:58 PM,77.2,57.2,50,30.09,10.0,Variable,3.5,-,N/A,,Clear,0,2013-06-19 20:58:00
5:58 PM,77.2,56.3,48,30.08,10.0,SE,3.5,-,N/A,,Mostly Cloudy,130,2013-06-19 21:58:00
6:58 PM,76.5,56.7,50,30.08,10.0,NE,2.3,-,N/A,,Clear,40,2013-06-19 22:58:00
7:58 PM,75.2,56.1,51,30.10,10.0,North,2.3,-,N/A,,Clear,10,2013-06-19 23:58:00
8:58 PM,72.0,60.8,68,30.10,10.0,NE,4.6,-,N/A,,Mostly Cloudy,50,2013-06-20 00:58:00
9:58 PM,68.4,57.9,69,30.11,10.0,NE,4.6,-,N/A,,Partly Cloudy,50,2013-06-20 01:58:00
10:58 PM,64.9,59.0,81,30.12,10.0,ENE,6.9,-,N/A,,Clear,60,2013-06-20 02:58:00
11:58 PM,66.9,57.2,71,30.12,10.0,ESE,4.6,-,N/A,,Clear,120,2013-06-20 03:58:00